TimeMST,TemperatureF,Dew PointF,Humidity,Sea Level PressureIn,VisibilityMPH,Wind Direction,Wind SpeedMPH,Gust SpeedMPH,PrecipitationIn,Events,Conditions,WindDirDegrees,DateUTC
12:15 AM,12.2,10.4,92,30.34,10.0,ESE,5.8,-,N/A,,Partly Cloudy,120,2012-11-12 07:15:00
12:35 AM,12.2,10.4,92,30.34,10.0,East,8.1,-,N/A,,Clear,90,2012-11-12 07:35:00
12:55 AM,10.4,8.6,92,30.35,10.0,East,6.9,-,N/A,,Partly Cloudy,80,2012-11-12 07:55:00
1:15 AM,10.4,8.6,92,30.36,10.0,ESE,9.2,-,N/A,,Mostly Cloudy,110,2012-11-12 08:15:00
1:35 AM,10.4,8.6,92,30.37,10.0,East,8.1,-,N/A,,Mostly Cloudy,80,2012-11-12 08:35:00
1:55 AM,10.4,8.6,92,30.38,10.0,East,10.4,-,N/A,,Partly Cloudy,90,2012-11-12 08:55:00
2:15 AM,10.4,6.8,85,30.39,10.0,East,8.1,-,N/A,,Clear,90,2012-11-12 09:15:00
2:35 AM,8.6,6.8,92,30.40,10.0,ENE,6.9,-,N/A,,Clear,60,2012-11-12 09:35:00
3:15 AM,8.6,6.8,92,30.40,10.0,East,6.9,-,N/A,,Clear,80,2012-11-12 10:15:00
3:35 AM,8.6,6.8,92,30.41,10.0,ENE,5.8,-,N/A,,Clear,70,2012-11-12 10:35:00
3:55 AM,8.6,6.8,92,30.41,10.0,East,4.6,-,N/A,,Clear,90,2012-11-12 10:55:00
4:15 AM,6.8,5.0,92,30.42,10.0,Calm,Calm,-,N/A,,Clear,0,2012-11-12 11:15:00
4:35 AM,6.8,5.0,92,30.43,10.0,Calm,Calm,-,N/A,,Clear,0,2012-11-12 11:35:00
4:55 AM,5.0,3.2,92,30.44,10.0,Calm,Calm,-,N/A,,Clear,0,2012-11-12 11:55:00
5:15 AM,5.0,3.2,92,30.44,10.0,Calm,Calm,-,N/A,,Clear,0,2012-11-12 12:15:00
5:35 AM,5.0,3.2,92,30.45,10.0,Calm,Calm,-,N/A,,Clear,0,2012-11-12 12:35:00
5:55 AM,5.0,1.4,85,30.45,10.0,ESE,4.6,-,N/A,,Clear,110,2012-11-12 12:55:00
6:15 AM,5.0,1.4,85,30.46,10.0,East,5.8,-,N/A,,Clear,100,2012-11-12 13:15:00
6:35 AM,3.2,1.4,92,30.47,10.0,ESE,4.6,-,N/A,,Clear,110,2012-11-12 13:35:00
6:50 AM,3.2,1.4,92,30.47,10.0,Variable,4.6,-,N/A,,Clear,0,2012-11-12 13:50:00
6:55 AM,3.2,1.4,92,30.48,10.0,East,4.6,-,N/A,,Clear,100,2012-11-12 13:55:00
7:49 AM,8.6,5.0,85,30.50,10.0,Calm,Calm,-,N/A,,Clear,0,2012-11-12 14:49:00
8:50 AM,19.4,14.0,80,30.51,10.0,Calm,Calm,-,N/A,,Clear,0,2012-11-12 15:50:00
9:50 AM,28.4,15.8,59,30.49,10.0,Calm,Calm,-,N/A,,Clear,0,2012-11-12 16:50:00
10:45 AM,30.2,12.2,47,30.48,10.0,Calm,Calm,-,N/A,,Clear,0,2012-11-12 17:45:00
11:50 AM,28.4,12.2,51,30.45,10.0,Calm,Calm,-,N/A,,Clear,0,2012-11-12 18:50:00
12:45 PM,24.8,14.0,64,30.41,10.0,Calm,Calm,-,N/A,,Clear,0,2012-11-12 19:45:00
1:47 PM,26.6,15.8,64,30.39,10.0,WSW,3.5,-,N/A,,Clear,240,2012-11-12 20:47:00
2:55 PM,28.4,17.6,64,30.37,10.0,Calm,Calm,-,N/A,,Clear,0,2012-11-12 21:55:00
3:50 PM,30.2,15.8,55,30.36,10.0,Calm,Calm,-,N/A,,Clear,0,2012-11-12 22:50:00
4:45 PM,28.4,17.6,64,30.35,10.0,Calm,Calm,-,N/A,,Partly Cloudy,0,2012-11-12 23:45:00
5:53 PM,21.2,19.4,93,30.35,10.0,East,5.8,-,N/A,,Partly Cloudy,90,2012-11-13 00:53:00
6:45 PM,19.4,17.6,93,30.36,10.0,East,3.5,-,N/A,,Partly Cloudy,100,2012-11-13 01:45:00
7:35 PM,19.4,15.8,86,30.36,10.0,ESE,4.6,-,N/A,,Clear,110,2012-11-13 02:35:00
7:55 PM,17.6,15.8,93,30.36,10.0,ESE,4.6,-,N/A,,Clear,110,2012-11-13 02:55:00
8:15 PM,17.6,15.8,93,30.37,10.0,ESE,5.8,-,N/A,,Clear,110,2012-11-13 03:15:00
8:35 PM,17.6,14.0,86,30.37,10.0,ESE,4.6,-,N/A,,Clear,120,2012-11-13 03:35:00
8:55 PM,17.6,14.0,86,30.37,10.0,East,3.5,-,N/A,,Clear,90,2012-11-13 03:55:00
9:15 PM,17.6,14.0,86,30.38,10.0,Calm,Calm,-,N/A,,Clear,0,2012-11-13 04:15:00
9:35 PM,15.8,14.0,93,30.37,10.0,East,3.5,-,N/A,,Clear,90,2012-11-13 04:35:00
9:55 PM,17.6,15.8,93,30.37,10.0,East,3.5,-,N/A,,Clear,90,2012-11-13 04:55:00
10:15 PM,17.6,15.8,93,30.36,10.0,East,5.8,-,N/A,,Clear,90,2012-11-13 05:15:00
10:35 PM,17.6,15.8,93,30.36,10.0,East,4.6,-,N/A,,Clear,100,2012-11-13 05:35:00
10:55 PM,17.6,15.8,93,30.36,10.0,Calm,Calm,-,N/A,,Clear,0,2012-11-13 05:55:00
11:15 PM,17.6,15.8,93,30.36,10.0,West,3.5,-,N/A,,Clear,260,2012-11-13 06:15:00
11:35 PM,17.6,15.8,93,30.37,10.0,Calm,Calm,-,N/A,,Clear,0,2012-11-13 06:35:00
11:55 PM,19.4,17.6,93,30.36,10.0,Calm,Calm,-,N/A,,Clear,0,2012-11-13 06:55:00